Weather History for Morgantown, WV

Change the Weather History Date:

Tuesday, January 2, 2001

  Actual Average Record
Temperature  
Mean Temperature 17 °F 32 °F  
Max Temperature 24 °F 39 °F 70 °F (2000)
Min Temperature 7 °F 24 °F -8 °F (1968)
Degree Days  
Heating Degree Days 48 33  
Month to date heating degree days 66  
Since 1 July heating degree days 2050  
Cooling Degree Days 0 0  
Month to date cooling degree days 0  
Year to date cooling degree days 0  
Moisture  
Dew Point 12 °F    
Average Humidity 78    
Maximum Humidity 93    
Minimum Humidity 57    
Precipitation  
Precipitation 0.00 in 0.09 in 1.06 in (1966)
Month to date precipitation 0.18  
Year to date precipitation 0.18  
Sea Level Pressure  
Sea Level Pressure 30.47 in    
Wind  
Wind Speed 3 mph (West)    
Max Wind Speed 10 mph    
Max Gust Speed -    
Visibility 10 miles    
Events Snow    
T = Trace of Precipitation, MM = Missing Value Source: NWS Daily Summary

Daily Weather History Graph

Daily Weather History Graph

Search for Another Location

Airport:

Trip Planner

Search our weather history database for the weather conditions in past years. The results will help you decide how hot, cold, wet, or windy it might be!

Date:

Astronomy

Jan. 02, 2001 Rise Set
Actual Time 7:40 AM EST 5:07 PM EST
Civil Twilight 7:10 AM EST 5:37 PM EST
Nautical Twilight 6:36 AM EST 6:11 PM EST
Astronomical Twilight 6:04 AM EST 6:43 PM EST
Moon 12:17 PM EST (1/2) No Moon Set
Length of Visible Light 10h 26m
Length of Day
9h 26m
Waxing Crescent, 48% of the Moon is Illuminated
Jan 2
Waxing Crescent
Jan 2
First Quarter
Jan 9
Full
Jan 16
Last Quarter
Jan 24
New

Hourly Weather History & Observations

Time (EST) Temp. Windchill Dew Point Humidity Pressure Visibility Wind Dir Wind Speed Gust Speed Precip Events Conditions
12:17 AM 19.4 °F 14.3 °F 17.6 °F 93% 30.32 in 10.0 mi Variable 3.5 mph - N/A   Overcast
12:34 AM 19.4 °F 14.3 °F 17.6 °F 93% 30.32 in 10.0 mi SW 3.5 mph - N/A   Overcast
12:41 AM 19.4 °F 14.3 °F 17.6 °F 93% 30.32 in 10.0 mi SSW 3.5 mph - N/A   Overcast
12:53 AM 19.0 °F 12.3 °F 17.1 °F 92% 30.37 in 10.0 mi SW 4.6 mph - N/A   Overcast
1:53 AM 19.9 °F - 17.1 °F 89% 30.38 in 10.0 mi Calm Calm - N/A   Overcast
2:53 AM 19.0 °F 12.3 °F 16.0 °F 88% 30.40 in 10.0 mi Variable 4.6 mph - N/A   Overcast
3:37 AM 19.4 °F 12.8 °F 15.8 °F 86% 30.35 in 10.0 mi WNW 4.6 mph - N/A   Overcast
3:53 AM 19.0 °F - 15.1 °F 85% 30.42 in 10.0 mi Calm Calm - N/A   Overcast
4:53 AM 18.0 °F 12.7 °F 12.9 °F 81% 30.43 in 10.0 mi Variable 3.5 mph - N/A   Overcast
5:53 AM 17.1 °F 8.7 °F 12.0 °F 81% 30.45 in 10.0 mi Variable 5.8 mph - N/A   Clear
6:53 AM 15.1 °F 9.4 °F 10.9 °F 84% 30.48 in 10.0 mi WNW 3.5 mph - N/A   Clear
7:53 AM 15.1 °F - 10.9 °F 84% 30.50 in 10.0 mi Calm Calm - N/A   Mostly Cloudy
8:53 AM 15.1 °F 9.4 °F 12.0 °F 88% 30.53 in 10.0 mi NNW 3.5 mph - N/A   Overcast
9:53 AM 16.0 °F 10.4 °F 12.0 °F 84% 30.55 in 4.0 mi Variable 3.5 mph - 0.00 in Snow Light Snow
10:53 AM 19.0 °F - 12.9 °F 77% 30.55 in 9.0 mi Calm Calm - 0.00 in Snow Light Snow
11:33 AM 19.4 °F 12.8 °F 12.2 °F 74% 30.47 in 10.0 mi Variable 4.6 mph - 0.00 in   Overcast
11:53 AM 19.9 °F 13.4 °F 12.9 °F 74% 30.53 in 10.0 mi Variable 4.6 mph - 0.00 in   Overcast
12:37 PM 21.2 °F 10.1 °F 12.2 °F 68% 30.46 in 10.0 mi WNW 10.4 mph - N/A   Overcast
12:53 PM 21.9 °F 12.5 °F 10.9 °F 63% 30.51 in 10.0 mi NNW 8.1 mph - N/A   Overcast
1:53 PM 23.0 °F 14.7 °F 10.9 °F 60% 30.51 in 10.0 mi NW 6.9 mph - N/A   Overcast
2:53 PM 23.0 °F 14.7 °F 10.9 °F 60% 30.50 in 10.0 mi Variable 6.9 mph - N/A   Mostly Cloudy
3:53 PM 24.1 °F 16.0 °F 10.9 °F 57% 30.50 in 10.0 mi Variable 6.9 mph - N/A   Scattered Clouds
4:53 PM 23.0 °F - 10.0 °F 58% 30.51 in 10.0 mi Calm Calm - N/A   Partly Cloudy
5:53 PM 21.0 °F - 9.0 °F 60% 30.51 in 10.0 mi Calm Calm - N/A   Clear
6:53 PM 19.9 °F - 9.0 °F 62% 30.53 in 10.0 mi Calm Calm - N/A   Clear
7:53 PM 15.1 °F - 8.1 °F 74% 30.54 in 10.0 mi Calm Calm - N/A   Clear
8:53 PM 16.0 °F - 9.0 °F 74% 30.55 in 10.0 mi Calm Calm - N/A   Clear
9:53 PM 10.9 °F - 7.0 °F 84% 30.56 in 9.0 mi Calm Calm - N/A   Clear
10:53 PM 12.0 °F - 7.0 °F 80% 30.55 in 10.0 mi Calm Calm - N/A   Clear
11:53 PM 7.0 °F - 3.0 °F 84% 30.53 in 8.0 mi Calm Calm - N/A   Clear